Hourly Data Report for January 07, 2013

BAGOTVILLE A
QUEBEC

48°20'00.000" N
71°00'00.000" W
159.10 m
7060400
71727
YBG

Download Data

Hourly Data (January 2013)
Hourly Data Report for January 7, 2013
TIME
LST
Temp Definition
°C
Dew Point Definition
°C
Rel Hum Definition
%
Precip. Amount Definition
mm

Wind Dir Definition
10's deg

Wind Spd Definition
km/h
Visibility Definition
km
Stn Press Definition
kPa
Hmdx Definition


Wind Chill Definition


Weather Definition


00:00 -22.2 -25.5 74   27 17 24.1 100.19   -32 Mainly Clear
01:00 -23.2 -25.7 80   27 13 24.1 100.28   -32 Mainly Clear
02:00 -23.6 -26.2 79   28 17 24.1 100.39   -34 Clear
03:00 -24.5 -27.1 79   27 17 24.1 100.46   -35 Clear
04:00 -24.6 -27.2 79   28 13 24.1 100.53   -34 Clear
05:00 -26.1 -27.7 86   27 13 24.1 100.62   -36 Clear
06:00 -27.1 -29.9 77   26 4 24.1 100.71   -31 Mainly Clear
07:00 -27.2 -30.0 77   31 6 24.1 100.81   -33 Mainly Clear
08:00 -28.3 -31.2 76     0 40.2 100.89     Clear
09:00 -26.6 -30.7 68     0 40.2 100.98     Clear
10:00 -25.3 -29.2 70     0 40.2 101.01     Clear
11:00 -23.1 -27.6 67     0 40.2 100.98     Clear
12:00 -22.5 -28.0 61     0 40.2 100.90     Mainly Clear
13:00 -21.1 -27.2 58   2 4 40.2 100.86   -25 Mainly Clear
14:00 -21.0 -26.0 64   10 4 40.2 100.81   -25 Mainly Clear
15:00 -20.5 -24.4 71   9 7 40.2 100.75   -26 Mostly Cloudy
16:00 -21.8 -27.0 63     0 40.2 100.71     Mostly Cloudy
17:00 -22.3 -25.7 74   17 4 24.1 100.63   -26 Mostly Cloudy
18:00 -22.6 -28.1 61   14 7 24.1 100.53   -29 Mostly Cloudy
19:00 -22.2 -26.5 68   12 9 24.1 100.39   -29 Mostly Cloudy
20:00 -21.5 -25.7 69   12 11 24.1 100.20   -29 Mostly Cloudy
21:00 -20.4 -23.5 76   11 15 24.1 99.95   -30 Mostly Cloudy
22:00 -17.6 -22.4 66   10 26 24.1 99.82   -29 Mostly Cloudy
23:00 -17.0 -20.9 72   10 19 19.3 99.83   -26 Snow Showers

Notes on Data Quality.

Legend

  • E = Estimated
  • M = Missing
  • NA = Not Available*
  • [empty] = Indicates an unobserved value
Date modified: